Wind_Speed
18 16 14 14 13 12 11 10 10 9 7 7 8 9 9 9 9 10 11 10 9 8 8 9 10 10 10 10 8 5 6 4 3 3 4 4 4 4 3 3 4 4 7
17 15 13 13 12 11 10 9 9 9 8 8 8 9 10 10 9 10 11 8 8 9 9 10 10 11 11 10 8 8 7 2 6 7 7 5 6 5 5 4 6 6 8
16 14 13 13 11 10 9 8 8 8 9 8 8 9 9 9 9 10 9 10 10 10 10 10 10 10 10 10 11 12 11 11 9 9 9 8 9 8 6 6 6 7 7
16 14 13 12 11 11 10 9 9 9 9 9 9 9 9 9 9 9 10 9 10 11 11 10 9 9 9 10 10 10 10 9 6 4 2 9 10 8 6 3 5 6 6
15 14 12 11 12 11 11 11 10 10 10 10 9 9 9 10 10 10 9 8 8 9 9 8 8 8 7 7 6 7 9 9 8 5 4 5 5 3 3 2 2 3 3
13 12 11 11 12 12 11 12 11 11 11 10 9 9 10 10 10 9 8 8 8 9 9 8 8 7 7 5 4 7 9 11 10 7 12 5 5 3 2 1 2 1 1
14 11 10 11 13 13 12 12 12 11 11 10 9 9 10 10 10 10 10 10 11 11 9 7 6 4 6 7 6 8 9 6 4 12 13 6 9 7 7 3 1 1 1
11 10 10 13 14 13 12 12 12 11 9 9 9 10 12 12 12 12 12 12 11 10 9 7 4 3 4 9 10 12 11 13 17 8 9 10 10 8 8 6 2 2 3
7 9 11 13 14 12 12 11 10 10 9 10 12 13 13 14 14 15 14 13 13 12 14 12 13 8 8 10 11 13 15 16 12 3 7 11 12 10 9 6 5 4 3
4 10 13 13 12 11 11 10 9 9 10 12 15 15 17 17 17 16 14 15 14 17 20 19 18 14 16 15 18 17 20 23 17 17 11 19 16 12 10 8 6 4 3
3 11 11 11 11 10 9 9 9 9 11 13 16 17 18 17 17 16 15 15 14 13 15 14 14 9 16 17 13 17 10 14 29 16 20 22 17 13 10 8 7 7 6
10 11 10 9 9 7 9 8 9 9 12 12 15 16 19 19 15 15 10 12 13 7 10 17 17 16 16 14 20 13 8 13 21 19 22 20 19 15 11 10 9 9 10
10 11 9 8 6 6 7 7 8 8 12 10 11 12 15 12 13 14 9 2 2 13 19 20 22 20 14 13 16 7 20 13 20 20 18 16 18 16 14 12 10 10 11
12 11 10 9 4 6 7 7 10 3 9 9 10 11 10 11 8 9 5 18 8 23 26 24 22 17 25 26 15 13 12 9 8 11 16 16 18 19 14 12 11 10 10
12 11 11 10 6 6 5 10 14 9 9 8 10 10 9 5 6 8 7 20 32 18 21 13 19 14 14 8 7 11 14 10 7 6 16 20 19 23 16 16 14 12 12
12 11 11 11 7 5 4 6 9 13 9 6 8 6 4 6 3 5 10 10 14 13 18 32 31 26 13 14 13 14 16 15 14 14 17 22 20 26 25 18 17 16 14
11 11 11 11 9 6 6 7 9 9 10 7 5 4 2 1 3 6 11 10 13 16 18 19 38 38 14 8 11 16 20 19 16 15 20 16 23 28 26 23 22 18 16
13 11 10 11 10 8 8 8 10 10 10 5 1 5 4 4 5 7 12 15 15 19 27 35 31 32 24 13 15 20 20 23 15 11 13 21 21 23 23 24 24 21 19
13 12 10 10 10 9 8 9 9 9 6 8 5 4 6 6 8 7 11 14 15 20 24 27 28 25 19 18 20 20 21 19 22 23 13 18 14 12 18 23 23 19 20
14 14 12 10 10 9 8 9 10 10 7 4 6 4 2 6 9 6 13 15 17 21 21 19 20 25 24 21 21 19 20 13 22 26 19 24 28 23 17 20 19 22 18
17 15 14 12 10 10 9 8 8 9 7 6 4 7 0 7 10 6 12 19 20 22 28 11 17 20 20 21 21 19 21 19 19 24 34 30 26 28 10 15 19 17 17
19 17 15 13 11 12 11 10 9 8 3 7 6 6 6 8 9 10 10 14 17 17 22 17 18 21 22 26 29 26 24 19 15 24 23 23 27 25 24 20 20 19 17
19 18 16 15 13 13 11 9 8 6 12 10 9 7 7 9 11 10 11 11 13 13 18 20 22 22 23 24 25 28 29 27 26 23 24 20 24 22 15 19 8 18 18
18 19 17 17 15 14 13 10 9 8 7 6 5 5 5 5 8 9 9 11 12 13 14 16 19 24 26 24 24 24 26 26 27 28 24 26 22 23 17 15 27 19 18
20 19 19 19 18 17 15 13 10 9 8 5 5 3 3 8 8 7 8 11 14 14 16 19 21 22 24 25 26 27 24 23 25 26 24 20 20 19 14 23 23 18 24
22 21 22 20 19 18 16 14 12 10 9 8 6 4 3 5 7 5 9 12 15 18 20 21 23 24 24 25 25 25 25 26 24 24 21 18 16 15 20 19 22 20 26
Wind_Direction
126 126 129 121 116 118 123 125 118 109 108 102 95 95 88 81 85 85 93 101 107 109 110 108 101 98 94 98 101 62 30 34 90 127 108 118 118 87 76 79 89 111 109
125 127 124 120 119 120 121 117 112 106 100 97 94 92 91 85 86 91 102 94 96 92 92 95 96 95 88 81 68 47 28 111 137 131 121 115 119 104 101 97 119 118 110
126 124 119 114 116 119 120 118 112 107 100 91 90 92 92 93 95 105 95 92 88 86 86 85 83 82 78 76 65 50 58 95 110 116 123 138 124 117 113 119 121 120 119
124 120 115 115 116 114 114 112 107 101 93 90 86 87 89 90 98 97 90 78 77 80 82 84 85 81 84 81 70 66 65 70 67 74 75 131 126 133 132 143 138 130 129
121 112 110 113 114 110 109 106 103 97 93 90 92 91 93 95 95 94 91 86 89 91 89 89 85 83 88 71 71 71 59 57 57 63 33 349 46 100 122 162 125 140 138
109 106 108 115 115 112 109 107 104 100 93 93 94 91 95 101 108 110 105 98 85 75 75 69 63 60 52 30 29 42 43 35 36 82 60 27 22 34 35 220 197 189 168
115 108 114 116 115 113 111 104 98 94 91 89 92 94 103 109 109 104 100 91 82 78 66 52 47 45 47 32 16 28 31 22 341 279 77 40 40 29 35 61 201 278 292
121 114 115 118 115 112 108 103 100 99 96 98 102 107 103 104 105 103 98 93 86 69 50 29 11 23 34 29 23 26 25 16 2 339 119 81 29 18 26 43 43 303 303
90 113 123 119 113 110 106 106 107 104 98 100 107 110 110 107 107 106 101 94 83 72 55 47 56 85 90 59 37 23 13 6 351 172 105 63 9 4 12 13 1 348 334
256 131 130 122 117 113 112 111 113 106 102 107 117 117 104 107 104 101 99 95 86 74 71 74 80 85 101 84 67 45 5 354 358 30 40 35 23 14 3 355 347 338 335
150 121 126 124 117 117 114 111 117 116 114 121 122 119 111 117 106 103 91 85 73 64 78 79 56 58 113 83 83 66 360 2 349 11 18 15 360 0 352 344 328 322 321
180 131 133 127 115 121 121 119 132 132 130 138 139 135 130 127 103 89 92 72 64 335 84 68 53 352 36 50 40 10 9 20 5 358 2 355 349 348 334 331 317 305 302
162 146 136 128 123 125 119 140 143 139 129 143 135 120 109 103 121 114 105 90 82 355 66 48 21 19 8 84 58 342 34 48 3 345 335 330 347 334 328 319 313 314 303
166 154 149 132 127 117 133 158 118 162 140 151 122 132 130 135 131 84 352 2 94 25 34 29 10 36 356 32 28 343 16 21 9 332 316 340 340 342 326 312 314 308 306
166 162 147 139 126 118 165 147 150 149 162 149 135 150 84 107 100 90 27 340 27 13 24 19 352 347 352 43 345 319 338 347 355 321 323 340 334 339 336 334 318 310 306
172 166 147 146 135 129 133 153 148 159 148 164 163 139 150 90 60 40 30 342 10 342 353 4 344 332 337 322 352 355 350 346 328 329 336 326 320 329 324 321 318 309 298
175 171 157 153 149 135 149 152 172 161 152 175 134 150 173 187 350 339 5 338 339 347 352 359 352 13 303 312 3 5 349 345 334 335 317 325 323 319 316 308 316 304 296
186 177 171 162 160 144 155 163 173 163 170 153 259 191 223 261 282 301 317 340 346 345 352 357 349 9 29 27 14 1 4 9 4 328 311 317 308 340 327 307 307 307 313
190 186 180 179 166 161 162 165 176 158 174 158 215 253 232 272 284 311 313 345 328 349 348 354 1 16 27 10 2 356 348 342 329 352 326 265 333 334 291 310 309 296 309
194 191 188 192 177 175 171 179 172 173 180 195 194 237 169 276 299 304 312 320 343 359 345 334 355 8 3 8 7 359 357 347 330 326 334 330 334 348 298 295 296 297 304
196 199 196 197 191 184 183 183 182 180 184 210 205 202 324 283 277 331 319 336 337 337 10 302 357 348 351 352 354 0 5 1 334 344 330 329 328 329 347 318 290 306 307
199 198 205 198 200 192 192 187 188 175 325 278 230 248 254 270 295 315 335 329 333 331 359 14 356 358 350 350 352 357 2 3 337 321 322 325 332 331 318 319 317 313 306
202 197 207 202 199 206 200 194 192 193 194 226 244 260 260 279 301 325 332 330 346 344 341 353 358 349 349 355 350 347 346 350 345 343 334 331 323 323 310 312 310 308 295
212 201 206 206 199 210 210 206 195 202 202 208 215 235 279 302 317 357 345 347 356 356 357 357 343 344 344 350 353 345 339 342 338 337 335 329 321 319 311 317 324 321 316
221 205 207 209 203 206 212 207 203 207 223 212 223 252 297 322 328 351 341 358 358 360 357 355 351 348 348 346 347 344 343 343 337 330 332 324 320 317 321 335 313 321 320
218 216 210 213 211 209 213 212 209 210 216 228 229 246 276 292 299 331 341 353 354 358 357 355 355 354 349 347 343 346 342 343 339 334 332 332 336 343 348 333 321 327 327
Height
3175 3176 3178 3178 3178 3179 3180 3181 3182 3182 3182 3182 3182 3183 3183 3183 3183 3184 3183 3183 3183 3183 3184 3185 3185 3186 3186 3187 3187 3186 3184 3184 3184 3184 3184 3184 3184 3184 3184 3185 3186 3187 3187
3176 3178 3179 3179 3180 3180 3181 3181 3182 3183 3183 3184 3184 3184 3184 3184 3185 3185 3185 3185 3185 3186 3186 3187 3188 3188 3187 3187 3187 3187 3186 3184 3184 3184 3185 3185 3184 3185 3185 3186 3186 3186 3187
3178 3180 3180 3181 3181 3182 3182 3183 3183 3184 3185 3185 3185 3185 3185 3186 3186 3186 3186 3187 3187 3187 3187 3188 3188 3188 3188 3188 3187 3186 3184 3182 3182 3183 3184 3184 3184 3184 3185 3186 3187 3187 3188
3181 3181 3182 3182 3183 3184 3184 3185 3185 3186 3186 3187 3186 3186 3187 3187 3188 3188 3189 3189 3189 3189 3189 3188 3187 3188 3188 3188 3188 3186 3185 3187 3189 3189 3189 3186 3184 3183 3184 3187 3187 3188 3188
3182 3183 3184 3185 3185 3185 3186 3186 3187 3187 3187 3188 3188 3188 3188 3189 3190 3190 3190 3189 3189 3189 3189 3189 3189 3189 3189 3188 3186 3186 3189 3190 3191 3191 3191 3190 3189 3187 3184 3186 3188 3189 3189
3183 3185 3186 3186 3187 3187 3187 3188 3188 3188 3189 3189 3189 3190 3191 3191 3190 3189 3190 3190 3191 3192 3192 3192 3192 3192 3192 3190 3186 3188 3191 3191 3190 3187 3187 3193 3194 3192 3187 3184 3188 3189 3189
3185 3186 3187 3188 3188 3189 3189 3189 3190 3190 3189 3190 3190 3191 3191 3190 3191 3191 3192 3192 3194 3194 3193 3193 3193 3193 3193 3190 3188 3191 3192 3191 3191 3188 3182 3193 3194 3193 3188 3183 3186 3188 3189
3187 3188 3189 3190 3190 3191 3191 3192 3192 3191 3191 3191 3192 3191 3192 3192 3192 3192 3193 3194 3195 3195 3194 3193 3192 3192 3192 3192 3190 3194 3196 3196 3192 3179 3186 3188 3192 3192 3187 3183 3185 3187 3188
3189 3191 3191 3192 3193 3193 3193 3194 3193 3193 3192 3193 3193 3193 3193 3195 3194 3194 3195 3196 3196 3195 3194 3190 3188 3187 3188 3190 3191 3194 3196 3198 3190 3187 3190 3184 3190 3189 3184 3183 3185 3186 3187
3192 3192 3193 3193 3195 3195 3196 3196 3195 3194 3193 3194 3194 3196 3199 3200 3198 3197 3196 3199 3199 3198 3195 3191 3186 3188 3188 3189 3190 3191 3191 3192 3188 3193 3194 3188 3185 3184 3183 3184 3186 3186 3186
3195 3194 3195 3196 3196 3197 3197 3197 3196 3195 3194 3195 3195 3199 3200 3196 3200 3199 3201 3202 3202 3200 3197 3193 3193 3165 3181 3190 3190 3191 3188 3183 3188 3190 3187 3185 3187 3183 3184 3185 3186 3186 3186
3197 3196 3197 3197 3198 3198 3198 3199 3198 3196 3195 3194 3193 3197 3199 3199 3198 3199 3204 3205 3204 3196 3195 3197 3193 3181 3181 3187 3185 3189 3192 3185 3185 3190 3189 3187 3188 3185 3184 3184 3184 3184 3183
3197 3198 3199 3199 3199 3199 3199 3201 3199 3197 3196 3194 3199 3211 3210 3203 3199 3202 3203 3201 3197 3182 3187 3198 3197 3190 3191 3187 3191 3196 3191 3191 3190 3189 3192 3192 3189 3183 3182 3181 3181 3180 3180
3198 3198 3199 3200 3201 3200 3201 3201 3201 3200 3198 3198 3209 3206 3200 3206 3202 3201 3200 3162 3189 3201 3191 3195 3201 3198 3188 3185 3189 3196 3197 3195 3197 3194 3192 3189 3184 3181 3180 3178 3177 3176 3177
3198 3198 3200 3201 3202 3202 3202 3202 3203 3203 3200 3200 3209 3213 3214 3207 3205 3206 3206 3194 3192 3207 3201 3196 3200 3195 3194 3193 3193 3195 3194 3193 3193 3193 3188 3184 3182 3179 3177 3175 3173 3170 3170
3198 3199 3201 3203 3203 3204 3204 3204 3205 3204 3202 3202 3203 3209 3211 3205 3205 3210 3210 3211 3211 3210 3207 3204 3201 3193 3190 3190 3191 3191 3190 3189 3190 3188 3185 3181 3179 3179 3179 3175 3171 3170 3167
3198 3199 3201 3203 3204 3205 3206 3206 3207 3207 3206 3206 3205 3206 3208 3211 3211 3210 3210 3209 3210 3209 3207 3207 3201 3192 3187 3191 3190 3190 3189 3187 3185 3184 3180 3175 3172 3172 3175 3175 3174 3169 3165
3199 3200 3201 3203 3205 3206 3207 3208 3209 3208 3209 3209 3209 3209 3210 3212 3214 3214 3212 3211 3210 3208 3206 3202 3199 3198 3193 3195 3193 3190 3189 3187 3185 3182 3182 3185 3181 3172 3169 3171 3169 3168 3164
3198 3200 3201 3203 3204 3206 3207 3208 3210 3210 3211 3211 3212 3210 3211 3213 3214 3216 3215 3213 3211 3211 3209 3204 3200 3196 3194 3193 3192 3189 3188 3187 3181 3179 3185 3150 3168 3169 3160 3166 3165 3162 3161
3197 3200 3201 3203 3205 3206 3207 3208 3209 3211 3212 3213 3213 3212 3213 3214 3215 3217 3216 3214 3212 3212 3207 3202 3200 3200 3199 3198 3195 3192 3189 3186 3179 3171 3174 3170 3168 3165 3163 3162 3163 3159 3156
3195 3199 3201 3203 3205 3206 3207 3208 3209 3212 3213 3214 3214 3213 3215 3216 3217 3220 3218 3214 3214 3212 3210 3203 3201 3202 3203 3200 3197 3193 3188 3185 3179 3177 3168 3170 3168 3165 3162 3158 3157 3155 3152
3194 3197 3200 3201 3204 3206 3208 3209 3210 3211 3214 3215 3215 3214 3215 3217 3218 3220 3221 3218 3217 3214 3211 3208 3206 3202 3202 3199 3193 3190 3186 3185 3181 3176 3174 3169 3165 3160 3157 3155 3153 3152 3151
3191 3195 3198 3201 3203 3205 3207 3209 3211 3212 3213 3214 3215 3215 3215 3216 3217 3220 3219 3218 3218 3217 3211 3207 3204 3204 3202 3200 3195 3188 3185 3181 3177 3176 3173 3169 3164 3159 3154 3152 3147 3150 3147
3189 3193 3196 3199 3201 3204 3206 3209 3211 3212 3213 3215 3216 3216 3215 3216 3217 3219 3218 3218 3217 3216 3214 3211 3208 3206 3202 3197 3193 3190 3186 3182 3176 3171 3169 3163 3160 3155 3152 3151 3146 3143 3141
3185 3190 3193 3197 3199 3202 3206 3208 3210 3212 3214 3214 3216 3216 3216 3216 3216 3219 3218 3218 3218 3217 3215 3212 3209 3206 3200 3194 3191 3188 3185 3182 3177 3171 3167 3162 3158 3152 3151 3150 3146 3142 3138
3183 3186 3190 3194 3197 3200 3204 3207 3209 3211 3213 3214 3216 3217 3217 3218 3217 3218 3217 3218 3217 3214 3212 3210 3206 3201 3196 3193 3190 3187 3182 3178 3174 3168 3164 3160 3156 3152 3150 3145 3142 3139 3135